Location: Helsinki
(60.1699°N, 24.9384°E)
Time: 14:02:59
(UTC+02:00)

Tiros 1 - Pass Details

Date: 08 October 2022
Orbit: 629 x 662 km, 48.4° (Epoch: 07 December)

Event Time Altitude Azimuth Distance (km) Brightness Sun altitude
Rises 22:40:28 0° 199° (SSW) 2,986 - -29.2°
Reaches altitude 10° 22:44:53 10° 161° (SSE) 2,078 - -29.6°
Maximum altitude 22:45:51 11° 150° (SSE) 2,041 - -29.7°
Drops below altitude 10° 22:46:50 10° 138° (SE) 2,079 - -29.8°
Sets 22:51:15 0° 100° (E) 2,992 - -30.1°
